GEFSGL_500_meanwind_210.txt.gz
Wind_Speed
12 12 12 11 11 11 11 11 10 10 10 10 9 9 9 8 8 8 8 8 9 9 9 8 8 8 8 8 8 8 7 8 8 8 8 8 8 9 9 10 10 11 12
12 12 13 13 13 13 12 12 11 11 11 11 11 10 10 10 10 9 9 9 9 8 8 8 8 8 8 8 8 8 8 8 8 9 9 9 9 10 10 11 12 12 13
13 13 14 14 14 14 14 14 13 12 12 12 11 11 11 11 11 11 10 10 9 9 8 8 8 8 9 9 9 9 9 9 9 10 10 10 10 10 11 12 13 13 14
13 14 15 15 15 15 14 14 14 14 13 13 13 13 13 12 12 12 12 11 11 10 9 9 9 9 9 9 9 10 10 10 10 10 11 11 11 12 12 13 14 15 16
14 15 15 15 16 16 15 15 15 15 15 15 14 13 13 12 12 12 13 12 12 11 11 11 10 10 10 10 10 10 11 11 12 12 12 13 13 14 15 15 16 17 17
16 17 17 16 16 16 17 17 16 16 15 15 14 14 14 13 13 13 13 13 13 13 12 12 12 12 11 11 12 12 12 12 13 13 14 15 16 16 17 17 17 18 18
18 18 18 18 17 17 17 17 17 17 17 16 16 15 15 15 15 15 14 14 14 14 13 13 13 12 13 13 13 14 14 14 14 15 16 16 17 18 18 18 19 19 20
20 19 18 18 17 17 17 17 17 17 17 17 17 17 17 16 16 15 15 15 16 16 15 15 15 14 14 14 14 14 14 15 15 16 17 18 19 19 19 19 20 20 21
20 20 19 18 18 18 18 18 18 18 18 18 18 17 17 17 17 17 16 16 16 17 17 17 16 16 16 16 16 16 16 16 17 17 18 19 19 20 21 21 21 22 22
22 21 20 19 19 19 19 19 18 18 19 19 19 19 19 18 18 19 18 18 18 18 18 18 18 18 18 18 18 18 18 18 19 19 20 20 21 21 22 22 22 23 23
22 21 21 20 20 20 19 19 19 19 19 19 19 19 20 20 20 20 20 20 19 19 19 19 20 20 20 20 20 20 20 20 20 21 22 22 22 22 23 23 24 24 24
23 22 21 21 21 21 20 20 20 20 19 19 20 20 20 20 20 20 21 21 20 20 19 20 21 21 22 22 21 21 21 21 22 22 22 22 22 23 23 24 24 24 24
24 24 23 22 22 22 21 21 21 21 20 20 20 20 20 20 21 21 21 21 21 21 21 21 21 22 22 22 22 22 22 22 23 23 23 23 23 24 24 24 25 25 25
26 25 25 24 23 23 23 22 22 21 21 20 20 20 21 21 21 21 21 22 22 22 23 22 22 22 23 23 22 23 23 23 23 23 24 24 24 25 26 26 26 26 27
27 27 26 26 25 25 24 23 22 22 22 21 21 22 21 21 21 22 23 23 23 23 24 24 24 23 23 24 24 24 24 24 23 23 24 25 25 26 26 27 27 28 28
29 28 28 27 27 26 26 24 24 23 23 22 23 22 21 21 22 22 23 24 23 23 24 23 24 24 25 25 25 25 24 25 25 26 26 26 26 26 27 28 28 29 29
30 29 29 28 27 27 27 26 25 24 24 23 23 21 21 22 22 22 23 23 23 23 24 24 25 25 25 25 25 25 25 26 26 26 26 26 28 28 29 29 29 30 30
30 29 29 28 28 28 27 27 26 26 25 24 24 24 23 23 23 23 23 23 24 24 25 25 25 26 26 25 25 25 25 25 26 26 27 28 29 29 29 29 30 31 31
29 28 27 26 27 27 27 27 26 26 26 25 24 25 25 25 25 24 24 24 24 24 25 25 25 25 25 24 23 24 25 26 26 27 28 29 30 30 31 32 32 32 33
28 28 27 26 26 26 26 26 26 26 25 24 24 24 24 24 24 24 24 24 24 25 25 25 25 24 23 24 24 25 26 27 27 28 28 29 30 31 31 32 33 33 34
28 28 27 26 26 26 26 26 25 25 25 25 25 25 24 24 24 25 24 25 25 25 24 24 23 23 24 25 26 26 27 27 28 29 29 30 30 31 31 32 33 33 34
28 28 27 26 26 26 26 26 25 26 26 26 26 25 25 25 25 25 24 24 25 25 25 24 24 24 24 25 26 26 27 28 29 30 30 31 30 31 31 32 33 34 34
28 28 27 26 25 25 25 25 26 26 26 25 25 25 25 25 25 25 25 25 25 25 25 25 24 24 25 25 26 27 27 28 28 29 30 30 31 31 31 31 32 33 34
28 27 26 25 25 25 25 24 24 25 24 25 26 25 25 25 25 25 25 25 26 25 25 25 24 25 25 25 26 27 27 28 28 28 29 30 30 31 31 32 33 33 34
27 27 25 24 25 25 25 24 24 24 24 24 25 24 24 25 25 25 26 26 26 25 25 24 24 24 25 26 26 27 28 28 28 29 29 29 30 30 31 31 32 32 33
27 26 25 24 25 25 24 24 23 24 24 24 24 24 24 24 25 25 25 25 24 24 24 24 24 24 25 25 25 26 26 27 28 28 28 29 29 30 31 32 32 33 34

GEFSGL_500_meanwind_216.txt.gz
Wind_Speed
9 9 9 9 10 9 9 9 10 10 10 10 10 10 11 11 11 10 10 10 9 9 9 9 9 9 10 10 9 9 9 9 9 9 9 8 8 8 8 8 9 10 11
10 10 10 10 10 10 10 10 10 11 12 12 12 12 12 12 11 11 11 11 10 10 10 10 10 10 10 10 9 9 9 9 9 8 8 9 9 9 9 10 10 11 12
11 11 11 11 11 11 12 11 11 12 12 13 13 13 13 12 12 12 12 12 12 11 11 11 10 10 10 10 10 10 10 10 9 9 9 9 10 10 10 11 11 12 12
12 12 12 12 12 12 12 13 13 13 13 13 13 13 13 13 13 13 12 12 12 12 12 12 12 11 11 11 11 11 11 10 10 10 10 10 11 11 12 12 13 13 13
13 13 13 13 13 13 13 13 13 13 13 13 13 13 14 14 13 13 14 14 13 13 12 12 12 12 12 12 12 12 12 12 12 12 12 13 13 13 13 14 14 15 15
15 14 14 14 15 15 14 14 14 14 14 14 13 13 13 14 14 14 14 14 14 14 14 14 14 13 13 13 14 14 14 13 13 14 14 14 14 15 15 15 16 17 17
16 16 16 15 15 15 15 15 15 15 15 14 14 14 14 14 14 14 14 14 15 15 15 15 15 15 15 15 15 15 15 15 15 15 15 16 16 17 17 17 17 18 18
18 17 17 17 17 16 16 16 15 15 15 15 15 15 15 15 15 15 15 15 15 16 16 16 16 16 16 17 17 17 17 17 17 17 17 17 17 18 18 18 18 19 19
19 19 18 19 18 18 18 17 17 16 16 16 16 16 16 16 16 16 16 16 16 17 17 17 17 17 18 18 18 18 19 19 19 19 19 19 19 19 19 19 19 20 20
21 21 20 20 19 20 20 19 19 19 18 18 18 18 17 17 16 17 18 18 18 18 18 18 18 18 19 19 20 20 20 20 21 21 21 21 20 21 21 22 22 22 22
23 23 22 21 21 21 21 21 21 21 20 20 20 19 19 18 18 18 18 19 20 19 19 19 19 20 20 20 21 22 22 22 22 22 22 22 22 22 22 23 24 24 24
25 25 24 24 24 23 23 23 23 22 23 22 22 21 21 20 19 19 19 20 20 20 20 20 21 22 22 22 22 22 23 24 24 24 23 23 23 24 24 24 25 25 25
27 27 27 26 26 25 25 25 24 24 24 24 23 22 22 21 21 21 20 20 21 21 21 22 22 23 23 23 24 24 25 25 26 26 25 24 24 25 25 24 25 25 26
28 28 27 27 26 26 26 26 26 26 26 25 25 24 24 23 23 22 22 21 22 22 22 23 23 24 24 24 25 25 25 26 26 25 26 26 26 26 25 25 25 25 26
27 27 27 26 26 26 26 25 25 25 26 25 25 25 24 24 24 23 23 23 23 23 23 23 24 24 25 25 26 26 26 26 26 26 26 26 26 26 25 26 26 27 27
27 27 28 28 27 27 27 26 24 24 24 24 25 25 25 25 24 25 24 24 24 25 25 25 25 26 26 27 27 26 26 26 26 27 27 27 27 27 27 26 26 27 27
28 28 28 28 27 27 27 26 25 25 24 24 24 25 25 25 25 25 25 26 26 26 26 26 26 27 27 27 26 26 26 26 26 26 27 27 27 27 27 27 27 27 28
29 29 28 28 27 27 26 26 25 24 24 24 25 25 25 25 26 26 26 27 26 26 26 26 26 25 25 25 25 25 24 24 24 25 26 27 27 27 28 28 28 28 29
29 29 28 28 27 27 26 26 26 25 25 25 25 25 25 25 26 26 26 26 26 26 26 26 26 25 25 24 24 24 24 24 24 24 25 26 26 27 27 28 29 29 29
29 28 28 27 27 26 26 26 26 25 24 24 24 25 25 25 25 26 26 26 26 25 25 26 25 25 24 24 24 24 24 24 24 25 26 27 27 28 28 29 30 30 31
29 28 28 27 27 26 26 26 26 25 24 24 24 24 25 25 25 25 25 25 25 25 26 26 25 25 23 23 23 23 23 24 25 26 26 27 28 29 29 29 30 31 31
29 28 27 26 26 25 25 25 24 24 24 24 24 24 24 25 25 24 24 24 25 25 25 26 25 24 24 24 24 24 24 25 26 27 27 27 27 28 28 29 29 30 31
29 28 27 26 25 24 24 24 23 23 23 23 24 24 24 24 24 23 23 24 25 25 25 25 24 24 24 24 24 24 25 25 26 26 27 27 27 27 27 28 29 30 31
29 28 27 26 25 24 24 23 23 23 23 23 23 23 23 23 23 23 23 24 24 24 25 25 24 24 23 23 23 24 24 25 24 24 25 25 26 26 26 27 28 29 30
29 28 27 26 25 24 24 23 23 23 24 24 24 24 24 23 23 23 24 24 24 23 24 24 23 23 23 22 23 23 23 23 23 23 24 24 25 25 26 26 28 29 29
28 27 26 26 25 25 24 24 24 24 24 25 25 25 24 24 24 24 25 25 25 24 23 23 23 23 23 23 23 23 23 23 23 24 24 24 25 26 26 27 28 29 29

GEFSGL_500_meanwind_222.txt.gz
Wind_Speed
10 10 10 10 10 11 11 10 10 10 10 11 11 11 11 12 12 11 11 11 11 11 10 10 10 11 11 11 11 12 12 12 11 11 11 11 12 12 12 12 12 12 12
11 11 12 11 11 11 11 11 11 11 11 12 12 12 11 11 11 12 11 11 11 11 11 11 11 11 11 11 11 11 12 12 12 12 12 13 12 12 13 13 13 13 13
12 12 12 13 12 13 13 12 12 12 12 12 12 12 12 11 12 12 12 13 13 12 12 12 12 12 12 12 11 12 12 12 12 12 13 13 13 13 14 14 14 14 15
13 13 13 14 14 14 14 14 14 13 13 13 13 12 12 13 13 13 13 13 13 13 13 13 13 13 13 13 13 12 13 12 13 13 13 13 14 14 15 15 15 16 16
14 14 14 15 15 15 15 15 15 14 14 14 14 14 14 15 15 15 15 15 15 14 14 14 14 14 14 14 14 14 14 14 14 14 15 15 15 15 15 16 16 16 16
16 16 16 17 17 17 17 17 16 16 16 16 15 15 16 16 16 15 16 16 16 15 15 15 15 15 15 16 16 15 15 15 16 16 16 16 16 16 16 17 17 17 17
17 17 17 17 18 18 18 17 17 17 17 18 17 17 17 17 17 17 16 16 16 16 16 16 17 17 17 17 18 18 17 17 18 18 18 18 18 17 17 18 18 19 19
19 19 19 19 19 19 19 19 19 19 20 19 19 19 19 19 19 19 19 18 18 18 18 18 18 19 19 19 19 19 19 20 20 20 19 19 19 19 19 18 19 20 20
21 21 21 21 21 21 21 20 21 21 21 21 21 21 21 21 20 20 20 20 20 19 19 19 19 19 19 20 21 21 21 21 21 21 21 21 21 21 20 21 21 21 21
23 23 23 22 22 22 22 22 22 22 22 22 22 23 23 22 22 22 21 21 21 21 21 21 21 21 21 22 22 22 22 22 22 22 22 21 21 22 22 22 22 22 22
25 24 24 24 24 24 24 24 24 24 24 24 24 23 23 23 22 22 22 22 22 22 22 22 22 22 22 22 23 23 23 23 24 23 23 23 22 22 22 22 22 22 22
26 26 26 25 25 26 26 26 25 25 25 25 24 24 24 23 23 23 22 22 22 23 23 23 23 23 22 23 23 24 24 24 24 24 24 24 23 23 23 23 23 22 23
27 28 27 27 27 27 27 27 26 26 26 26 26 25 25 25 24 24 23 22 22 23 23 23 23 23 22 23 23 23 23 23 24 23 23 23 23 24 24 24 24 24 24
28 29 28 28 28 27 27 27 26 26 26 26 26 26 25 25 25 25 24 24 24 24 23 23 23 23 23 23 22 22 23 24 24 24 23 24 23 23 24 24 25 25 26
28 29 29 29 28 28 28 27 27 26 26 26 26 26 26 26 26 26 25 26 26 25 23 23 23 23 23 23 23 22 23 24 24 24 24 24 24 24 24 25 26 26 27
30 30 29 29 29 28 28 27 27 26 26 26 26 26 26 26 25 25 25 25 25 25 24 23 23 23 23 23 22 22 23 23 23 23 24 24 24 25 25 25 25 26 27
31 30 30 30 29 28 28 27 27 26 26 27 27 27 26 26 26 25 25 25 24 24 24 24 23 23 23 23 23 24 25 24 24 23 24 24 24 24 24 25 25 26 27
31 31 30 29 29 28 28 27 27 26 26 26 26 26 26 26 26 26 25 25 25 24 24 24 24 23 23 24 24 25 25 25 24 24 24 24 24 24 25 25 26 26 26
31 30 29 29 29 28 28 27 27 26 26 26 25 25 26 27 26 26 25 25 25 24 24 24 24 24 24 24 24 24 25 25 25 24 24 25 25 25 25 25 25 25 26
31 30 30 29 29 29 29 28 27 27 26 26 25 25 26 26 26 26 26 26 25 24 24 24 24 24 24 25 26 26 26 26 25 25 24 25 25 25 25 25 24 25 25
31 31 30 30 30 30 30 29 28 27 26 25 25 26 26 26 26 25 25 25 25 25 24 24 24 24 24 25 26 26 26 25 25 24 24 24 24 24 23 23 23 23 24
31 31 31 31 30 30 30 30 29 28 27 26 25 26 26 26 25 25 24 24 25 25 25 24 25 25 25 25 25 26 24 23 24 24 24 24 24 24 23 23 23 23 23
32 31 31 31 30 30 30 29 29 28 27 25 24 24 25 25 25 24 24 24 25 25 25 25 25 25 25 24 24 23 23 23 23 24 24 23 23 23 23 23 23 23 23
32 31 30 30 30 30 30 29 28 27 26 25 25 25 24 24 24 25 25 25 24 24 24 24 24 24 24 24 23 22 22 23 23 24 24 23 22 23 23 23 23 23 24
31 31 30 29 29 29 28 28 28 27 26 26 25 24 24 24 25 25 25 25 25 25 25 24 24 23 23 23 22 22 23 23 23 24 23 23 24 24 24 23 23 24 24
30 29 29 28 28 27 27 27 27 27 27 27 26 25 24 24 24 24 25 25 25 25 24 24 23 23 23 23 22 23 23 23 24 24 25 25 25 24 24 24 24 25 26

GEFSGL_500_meanwind_228.txt.gz
Wind_Speed
10 10 10 10 10 10 10 10 10 9 10 10 11 11 12 12 11 11 10 10 10 11 11 11 11 11 11 11 11 11 12 12 12 11 11 11 12 13 13 14 14 14 14
11 12 11 11 11 11 11 11 11 10 11 11 12 12 12 13 12 12 11 11 11 12 12 12 12 12 12 12 12 12 12 12 12 12 12 12 13 13 14 14 14 14 14
13 13 13 12 13 12 13 12 13 12 12 12 13 13 13 13 13 12 13 13 13 13 13 13 13 13 13 13 13 13 13 13 13 13 13 13 13 14 14 15 15 15 15
15 15 15 15 14 14 14 14 14 14 14 13 14 14 14 14 14 13 14 14 14 14 14 14 14 14 14 14 14 14 14 14 14 14 14 15 15 15 15 15 15 15 16
17 16 17 17 17 17 16 16 15 15 15 15 15 15 15 15 15 15 15 15 15 15 15 15 15 15 15 15 15 15 15 15 15 15 16 16 16 16 17 17 17 17 17
18 18 19 19 19 19 18 17 17 16 16 16 16 16 17 17 17 17 17 16 16 16 17 17 16 16 16 16 17 17 17 17 17 17 18 18 18 18 17 17 17 18 18
19 19 19 20 21 20 20 19 19 18 18 18 18 18 18 18 18 17 18 17 17 17 18 18 18 18 18 17 18 18 18 19 19 19 20 20 19 19 19 19 19 19 19
20 20 20 21 21 21 21 21 20 20 20 20 20 20 19 19 19 19 19 19 18 18 18 19 19 19 19 19 19 20 20 20 21 21 21 21 20 20 20 19 20 20 20
21 21 22 22 21 21 21 21 21 21 21 22 22 21 21 21 21 21 20 20 20 19 20 20 20 21 21 21 21 21 21 21 22 22 22 21 21 21 20 20 20 20 20
22 22 22 22 22 22 22 22 22 22 23 22 22 23 23 22 22 22 22 21 21 21 21 21 21 22 23 23 23 22 22 22 22 22 22 21 21 21 21 21 21 21 21
23 23 23 23 23 23 23 23 23 23 23 23 23 23 23 23 23 22 22 22 22 21 21 21 21 22 23 23 23 23 22 22 22 22 23 22 22 21 21 21 21 21 21
24 24 23 24 24 24 23 23 23 23 23 23 24 24 24 23 23 23 23 22 22 22 22 22 22 22 23 23 23 22 22 22 21 21 22 21 22 21 21 21 22 21 22
24 24 24 25 25 25 24 24 24 24 24 24 24 24 24 24 24 24 23 23 23 23 23 23 23 23 23 22 23 23 22 22 21 21 21 21 21 21 21 21 22 22 22
25 25 25 26 25 25 25 24 25 25 25 25 25 25 25 25 25 24 24 24 25 24 24 24 24 24 23 23 23 23 23 22 22 22 21 22 22 22 22 23 23 23 24
26 26 26 26 26 26 26 25 25 25 26 26 26 26 26 25 25 25 25 25 25 25 25 25 25 25 24 24 24 24 23 23 23 23 23 23 23 22 23 23 23 24 24
27 27 27 27 27 27 27 26 26 25 25 25 25 25 25 25 25 25 25 25 24 24 25 25 24 24 24 24 24 23 23 23 24 24 23 23 23 23 24 24 24 25 25
28 28 28 28 28 27 27 27 26 26 25 25 25 25 25 25 25 25 25 25 25 25 25 25 25 24 24 23 23 23 23 23 23 24 24 24 24 24 24 24 24 25 25
28 28 28 28 28 28 28 27 27 26 26 25 25 25 26 25 25 25 25 25 25 24 24 24 24 24 24 24 24 23 23 23 23 24 25 25 24 24 24 24 24 24 25
29 29 29 28 28 28 27 27 27 26 25 25 24 25 25 25 25 25 25 24 24 24 24 23 24 24 24 24 24 24 24 24 25 25 25 24 24 24 24 25 25 25 25
29 29 29 29 28 27 27 26 25 25 24 24 24 24 24 24 24 24 24 24 24 24 24 24 24 25 25 25 25 25 24 25 25 25 24 24 24 25 24 24 24 24 23
30 30 30 30 29 27 27 26 26 25 25 25 24 23 23 23 23 22 23 23 23 24 24 24 24 25 25 25 25 25 24 24 24 24 24 23 23 24 23 23 23 23 22
30 30 30 29 29 28 27 27 26 25 25 25 24 23 22 22 22 22 22 23 23 23 23 24 24 24 24 23 22 23 23 23 24 24 24 23 24 23 23 23 22 22 22
30 30 29 29 29 28 27 27 26 26 25 25 24 24 23 23 22 22 23 23 24 23 23 24 24 24 24 24 24 24 24 24 24 24 24 23 23 23 23 22 22 22 23
30 30 30 29 29 28 28 27 27 27 26 25 25 25 24 23 23 23 24 24 24 24 24 24 24 24 24 25 25 25 25 25 25 25 24 23 23 23 23 22 22 23 23
30 30 29 29 29 28 28 27 27 27 26 26 26 25 25 24 24 24 24 25 25 26 25 25 25 24 24 25 25 25 25 25 25 25 24 23 22 22 22 22 22 23 24
29 28 29 29 28 28 28 28 27 27 26 26 25 25 25 25 26 25 25 26 26 26 26 26 26 25 25 25 25 25 25 24 24 24 23 23 22 22 22 23 24 24 25

GEFSGL_500_meanwind_234.txt.gz
Wind_Speed
14 13 13 13 13 13 13 13 13 13 13 13 13 13 13 13 13 13 13 13 13 13 13 13 13 13 13 13 13 14 14 13 13 13 13 13 13 13 13 13 13 14 14
14 14 14 14 14 14 14 14 14 14 14 14 14 14 14 14 14 14 14 15 15 15 15 15 14 15 14 14 14 14 14 14 14 14 14 14 14 14 14 14 15 15 15
15 15 15 15 15 15 15 15 15 15 16 16 16 15 15 15 15 15 15 16 16 16 16 16 16 16 15 15 15 15 15 15 15 15 15 15 15 15 15 15 15 15 15
16 16 16 16 16 16 16 16 17 17 17 17 17 16 16 16 16 16 17 17 17 17 17 17 17 16 16 16 16 16 16 16 16 16 16 15 16 16 16 16 16 16 16
17 17 17 17 17 17 17 17 18 18 18 18 18 18 18 18 18 18 18 18 18 18 18 18 18 18 17 17 17 17 17 17 17 17 17 17 16 16 17 17 17 17 17
17 17 18 18 18 18 19 19 19 19 19 19 19 19 19 19 19 20 20 20 20 19 19 19 19 19 18 18 18 18 18 18 18 18 18 18 18 18 18 18 18 18 18
19 19 19 19 19 19 19 19 20 20 20 19 19 20 20 20 20 20 21 21 21 20 20 20 20 19 19 19 19 19 19 19 19 19 19 19 18 19 19 19 19 19 19
20 20 19 20 20 20 20 21 21 21 20 20 20 21 21 21 21 22 22 22 22 22 22 22 22 21 21 20 20 19 20 20 20 20 20 20 20 20 20 20 20 20 19
21 21 21 21 21 21 22 22 22 21 21 21 21 22 23 23 23 22 22 22 22 22 22 22 23 23 22 22 21 20 20 20 20 20 20 21 21 21 20 20 20 20 19
22 22 22 22 22 22 22 22 23 22 22 22 22 23 24 24 23 23 22 23 23 23 22 22 22 23 23 23 22 21 21 21 21 21 21 22 22 21 20 20 21 21 21
23 23 23 22 22 23 23 23 23 23 23 23 24 24 24 24 23 23 23 23 23 22 22 22 22 22 22 23 23 23 22 22 22 22 22 22 21 21 20 20 21 21 21
24 24 23 23 23 24 24 24 24 24 24 24 24 24 24 24 24 24 23 22 22 22 21 21 21 22 22 23 23 24 24 23 22 22 22 21 21 21 20 20 21 21 21
26 26 25 24 24 25 25 25 25 24 25 25 25 25 25 24 24 24 23 22 22 22 22 22 22 22 22 23 23 24 24 23 23 23 22 22 21 22 22 21 21 21 21
27 27 26 26 25 25 26 25 25 25 25 25 25 25 25 25 25 24 23 23 23 22 22 22 23 23 23 23 23 23 24 24 24 23 23 23 22 22 22 22 22 22 22
28 27 27 27 27 26 26 26 26 26 26 26 26 26 26 25 24 24 23 23 23 22 22 23 23 23 23 23 23 23 24 24 24 23 23 23 23 23 23 22 22 22 22
28 28 27 28 27 27 27 27 27 27 27 27 27 27 26 26 25 24 24 23 23 23 23 23 24 24 24 24 23 24 24 24 24 23 23 23 23 23 23 23 24 24 24
29 28 28 29 28 28 27 27 27 27 27 27 27 27 27 26 25 25 25 24 24 24 24 24 24 24 24 23 23 24 23 24 24 23 23 23 23 23 24 23 24 24 24
30 29 29 29 29 28 27 27 28 28 28 28 27 27 27 26 25 25 25 25 24 23 24 24 24 24 24 24 23 23 23 22 23 23 23 24 24 24 24 23 24 24 24
30 30 30 30 30 30 29 29 29 28 28 28 27 26 26 26 26 26 26 26 24 24 24 24 24 24 24 24 24 24 23 23 23 23 23 24 25 25 25 24 24 24 24
31 30 30 31 31 30 29 29 29 28 28 27 26 25 25 25 26 26 25 25 24 23 24 24 24 25 25 25 24 24 23 23 23 23 23 24 24 25 25 26 26 25 25
32 31 31 31 31 31 30 29 29 29 28 27 26 26 25 24 24 25 25 24 24 23 23 24 24 24 24 24 24 24 24 23 24 24 24 24 24 25 25 25 26 25 25
32 31 31 31 31 31 31 30 29 29 28 28 27 26 25 24 24 24 24 23 23 23 23 23 23 23 24 23 23 24 24 24 24 25 25 25 25 26 26 26 25 25 25
32 32 32 32 32 32 32 30 30 30 29 29 28 26 25 24 24 24 24 24 23 24 24 23 23 23 23 23 24 24 24 25 25 25 25 26 26 27 27 27 27 26 26
33 33 33 33 33 33 33 32 31 30 30 28 27 26 26 26 25 25 25 24 24 24 24 23 23 24 24 24 24 25 25 25 25 26 27 27 27 28 28 28 28 27 27
33 33 33 32 33 33 33 32 31 30 29 28 28 27 26 26 26 25 25 25 25 24 24 24 24 24 24 24 25 26 26 26 27 27 27 28 28 28 29 28 28 28 28
33 33 33 32 32 31 31 29 29 29 30 29 28 27 27 26 26 26 26 26 25 25 25 24 24 25 25 25 26 26 27 27 27 27 27 28 28 28 28 28 28 28 28

GEFSGL_500_meanwind_240.txt.gz
Wind_Speed
12 12 13 12 12 12 12 12 11 11 11 11 11 11 11 12 12 12 13 13 13 13 13 14 14 14 14 14 14 14 14 14 13 14 14 13 13 13 13 13 13 13 13
13 13 13 13 13 13 13 13 12 12 12 12 12 12 12 13 13 13 13 14 14 14 14 15 15 15 15 15 15 15 15 15 14 14 14 14 15 14 14 13 13 14 14
14 14 14 15 15 14 14 13 13 13 13 13 13 13 14 14 15 15 15 15 15 15 16 16 16 16 16 16 16 16 16 16 16 15 15 15 15 15 15 14 15 14 15
15 16 16 16 16 15 15 14 14 14 14 14 14 15 15 15 16 16 16 16 16 16 17 17 18 18 18 18 17 17 17 17 16 16 16 16 15 15 15 15 15 15 15
17 17 17 16 17 17 16 15 15 15 15 15 15 15 16 16 16 16 17 17 17 17 18 18 19 19 19 19 18 18 17 17 16 16 16 16 16 16 16 16 16 17 17
18 17 17 17 18 18 17 17 16 16 16 16 16 16 16 17 17 17 17 17 17 18 18 19 19 20 20 20 19 19 18 18 17 17 17 17 17 17 17 17 17 18 18
19 19 19 19 18 18 18 17 17 17 17 16 16 16 16 17 17 17 16 17 18 18 19 20 20 21 21 21 20 20 19 19 18 18 17 18 18 17 18 18 18 18 18
20 20 20 19 19 18 19 18 18 18 18 17 17 18 18 18 18 18 18 18 18 19 20 20 21 21 21 21 20 19 19 19 19 19 18 18 19 18 18 19 19 19 18
20 21 21 20 20 19 20 20 19 19 19 19 19 19 19 19 19 19 19 19 20 20 21 21 21 21 21 21 21 20 20 20 20 20 19 20 19 19 19 19 19 19 19
21 21 21 21 21 21 21 21 21 20 20 20 20 20 20 20 20 21 21 21 21 21 21 21 21 21 21 21 21 21 20 20 21 20 20 20 20 20 20 20 19 19 19
21 22 22 22 22 22 23 22 22 22 21 21 21 22 22 21 22 22 22 22 21 21 21 21 21 21 21 21 21 21 21 21 21 22 21 21 21 21 21 21 20 19 19
22 22 22 23 23 23 23 24 24 24 23 22 22 22 22 23 23 23 23 22 22 21 21 21 21 21 21 21 20 21 21 22 22 22 22 22 21 21 21 21 21 20 19
22 23 23 24 25 25 24 24 24 24 23 23 22 22 23 23 23 24 23 22 22 22 22 22 22 22 21 21 20 20 21 21 21 22 22 22 21 21 22 22 22 21 20
24 24 24 25 25 26 26 25 26 25 25 24 23 23 23 23 23 23 23 23 22 22 22 22 22 22 22 22 21 20 21 21 21 22 22 22 21 22 22 22 22 22 21
25 25 25 26 26 27 27 26 26 26 25 25 24 24 24 24 24 23 23 23 22 22 22 22 22 22 22 23 22 22 22 22 22 22 22 22 22 22 22 22 22 22 22
25 25 26 27 27 27 27 26 26 26 26 26 25 25 25 25 24 24 24 24 23 23 23 23 23 23 22 23 23 23 23 23 23 23 23 23 23 23 22 22 23 22 22
27 27 27 27 28 27 27 27 26 26 26 26 26 26 26 26 25 25 25 25 25 25 24 24 24 23 24 24 24 24 24 24 24 23 23 23 23 23 23 23 23 22 22
28 28 28 28 28 28 27 27 27 27 27 26 26 26 26 26 26 26 25 25 26 25 25 25 25 25 25 24 24 24 24 24 24 23 23 23 23 23 23 23 23 23 23
28 28 29 28 28 28 28 28 28 28 28 27 27 26 26 27 27 27 26 26 26 25 25 25 25 24 24 24 24 24 24 24 24 24 24 24 24 24 24 24 24 25 25
29 29 29 29 29 29 29 29 28 28 28 28 28 27 27 28 27 27 27 27 26 25 25 24 24 24 24 24 24 23 23 24 25 25 25 24 24 25 24 25 25 25 26
31 30 30 29 29 29 29 29 29 30 29 29 28 29 29 28 27 27 27 27 26 25 25 25 25 25 24 25 24 24 24 24 25 25 25 25 25 25 25 25 26 26 26
31 31 31 30 31 30 31 30 30 30 29 29 29 29 30 29 28 27 27 27 26 26 26 26 26 25 25 26 25 25 25 25 25 25 25 25 25 25 26 26 27 27 28
32 31 31 32 32 31 31 31 31 31 31 31 30 30 30 29 28 27 26 27 26 26 26 26 26 26 27 26 26 25 25 25 25 25 25 26 26 25 26 26 26 27 28
32 32 32 32 32 32 32 32 32 33 33 33 32 30 30 29 28 27 27 27 27 27 26 26 26 26 26 26 26 25 25 25 25 25 25 25 25 26 26 27 27 28 28
32 32 32 32 32 32 33 33 33 34 34 34 32 31 30 29 28 27 27 27 27 27 27 26 26 26 26 26 25 25 24 25 26 26 26 25 26 26 26 27 28 29 29
33 33 32 33 33 33 33 34 34 33 33 33 33 31 30 30 29 28 28 28 28 27 27 26 26 26 26 26 25 24 24 25 26 27 27 27 27 27 27 28 28 29 29

GEFSGL_500_meanwind_246.txt.gz
Wind_Speed
16 16 16 16 16 15 14 14 14 13 13 13 13 12 12 12 12 12 13 13 13 13 12 12 13 13 14 14 15 15 15 15 16 15 15 14 14 14 14 14 14 14 14
17 18 18 18 17 16 16 15 15 15 15 14 13 13 13 13 13 13 14 14 14 14 14 14 14 15 15 15 16 16 16 16 17 16 15 15 15 14 14 15 15 15 15
19 19 19 19 18 18 17 17 16 16 15 15 15 15 14 14 15 15 15 15 15 15 15 15 16 16 17 17 17 17 17 18 18 17 16 16 16 15 15 15 15 15 15
20 20 20 19 19 19 18 18 17 17 17 16 16 16 16 17 17 16 16 16 16 17 17 17 17 18 18 18 19 19 19 19 19 18 18 17 17 16 16 16 16 16 16
21 20 20 20 19 19 19 19 18 18 18 17 17 17 17 17 17 17 17 17 17 17 18 18 19 19 20 19 20 20 20 20 20 19 18 18 18 17 18 17 18 17 18
21 21 20 20 20 20 19 19 19 19 19 19 18 18 18 18 18 18 18 18 18 18 19 20 20 20 21 21 21 21 20 20 20 20 19 19 18 18 19 19 19 19 19
21 21 20 21 20 20 20 20 20 20 20 20 20 19 18 18 18 18 19 19 20 20 20 21 21 21 21 21 21 20 20 20 20 20 20 20 19 19 20 20 20 21 21
21 21 21 21 21 21 21 21 21 21 21 21 21 20 20 19 19 19 20 21 21 21 21 22 22 22 21 21 21 21 21 21 21 21 21 21 21 21 21 20 20 21 21
22 22 22 22 21 21 21 21 21 21 21 21 21 20 20 20 20 20 20 20 21 21 21 22 22 22 21 21 22 22 22 22 22 22 21 21 20 20 20 20 20 20 20
22 22 23 23 23 22 21 21 22 22 21 21 21 20 21 21 21 21 21 21 21 21 22 22 22 22 22 22 22 22 22 22 22 22 21 21 21 21 21 21 21 20 20
23 23 23 22 23 22 22 21 22 22 22 21 21 21 22 22 22 23 22 22 22 22 22 22 22 23 23 23 23 22 22 22 22 22 22 22 23 22 22 22 22 21 21
23 23 23 23 23 23 23 23 23 22 22 22 22 22 23 23 23 23 23 22 22 22 22 22 22 23 24 23 23 23 23 23 23 23 23 23 23 23 22 22 22 22 22
24 24 24 24 24 24 24 24 24 24 24 24 24 24 23 23 23 23 23 23 23 23 23 23 23 23 24 24 24 24 23 23 23 23 23 24 23 23 23 22 22 22 22
25 25 25 25 25 25 25 25 25 25 25 25 25 24 24 24 24 24 24 24 24 24 24 25 25 24 25 25 25 24 24 25 25 24 24 24 24 24 24 23 22 22 22
26 26 26 26 26 25 25 25 25 25 26 26 26 26 25 25 25 25 25 25 25 25 26 26 26 25 25 26 26 26 25 26 26 26 25 25 25 25 25 24 23 23 23
27 27 27 26 26 26 26 26 26 27 27 28 27 27 27 26 26 26 26 26 26 26 27 27 26 26 26 27 26 26 26 26 26 26 26 25 26 26 26 25 24 23 24
28 27 27 27 27 27 27 27 27 28 28 28 28 28 28 28 27 27 27 27 27 27 27 27 27 27 27 27 27 26 26 26 26 26 26 26 26 26 26 26 25 25 24
29 29 29 29 29 29 29 29 29 29 29 29 28 28 28 28 28 28 28 28 28 28 28 27 27 27 27 27 27 26 26 26 26 26 26 26 26 26 25 25 25 25 25
30 30 30 31 30 30 30 29 29 29 29 29 28 28 28 29 29 29 29 29 29 29 28 28 27 27 27 26 26 26 26 26 26 26 26 26 26 26 25 25 25 25 26
31 31 31 30 30 30 30 30 30 29 29 29 28 28 29 30 29 29 29 29 29 29 29 28 28 27 26 26 26 26 26 26 26 27 26 26 26 26 26 26 26 26 26
31 31 31 31 30 30 30 30 30 30 30 29 29 30 30 30 30 30 30 30 29 29 28 28 28 27 26 27 27 27 26 26 26 26 25 25 26 26 26 26 26 26 27
31 32 32 31 31 31 30 30 31 31 31 31 31 31 31 31 31 31 31 31 30 30 29 28 27 27 27 27 27 27 27 26 26 25 25 25 25 26 26 26 27 27 28
32 32 32 32 32 32 32 32 32 32 32 33 33 32 32 32 32 31 31 31 30 30 30 29 28 28 27 28 27 27 27 27 27 27 26 26 27 27 27 27 28 28 29
33 32 33 33 33 33 33 33 33 33 33 33 33 33 32 32 32 32 32 31 31 31 30 30 29 29 28 28 28 28 28 28 28 28 28 28 28 27 28 28 28 29 29
33 33 33 33 33 33 33 33 33 33 33 34 34 34 34 34 34 33 33 33 33 32 31 30 29 29 29 28 28 28 28 28 28 28 28 29 28 28 28 29 29 29 29
33 33 33 33 33 33 33 33 34 35 35 36 35 36 36 36 35 35 35 35 34 33 32 31 30 30 30 30 29 29 29 29 29 29 29 29 29 29 28 28 29 29 29

GEFSGL_500_meanwind_252.txt.gz
Wind_Speed
16 16 16 16 16 16 16 16 16 15 15 15 14 14 13 13 12 12 11 11 12 12 12 13 13 13 13 13 13 13 13 13 14 14 14 14 14 15 15 15 15 15 15
17 18 18 18 18 18 18 18 17 17 16 16 16 15 15 15 15 14 14 13 14 14 14 14 14 14 14 14 14 14 14 14 15 15 15 15 15 15 15 15 15 16 15
20 20 20 19 19 20 20 20 19 18 18 17 17 17 16 16 16 16 15 15 15 15 15 15 15 15 15 15 15 15 15 15 16 16 16 16 17 17 17 17 16 16 16
21 21 21 20 20 20 20 20 19 19 18 18 18 18 18 17 17 17 17 16 16 16 16 17 17 17 17 16 16 16 16 17 17 17 17 17 18 18 17 17 17 17 17
22 22 22 21 21 20 20 20 20 19 19 19 19 19 19 19 18 18 18 18 18 17 18 18 18 18 18 17 17 17 18 18 18 18 18 18 18 18 18 18 18 18 18
23 22 22 22 21 21 21 21 21 20 19 19 19 20 20 19 19 19 19 19 19 19 19 19 19 19 18 18 18 19 19 19 19 19 19 19 19 19 19 19 19 19 19
24 23 23 22 22 22 22 22 21 20 20 20 20 20 20 19 19 19 19 20 20 20 20 20 20 20 20 19 20 20 20 20 20 20 20 20 20 20 20 20 20 21 20
24 24 24 23 23 22 22 22 22 22 21 21 21 21 21 20 21 21 21 21 20 20 20 20 21 21 21 20 21 21 21 21 21 21 21 21 21 21 21 20 21 21 21
25 25 24 24 24 23 23 23 23 23 23 22 21 21 22 21 21 22 22 22 21 21 21 21 21 22 22 22 22 21 21 21 21 21 21 22 22 22 22 22 22 21 22
25 25 25 24 24 23 23 24 24 24 23 23 23 23 23 23 23 23 23 23 23 22 22 22 22 23 23 23 23 22 22 22 22 22 22 22 23 23 23 23 23 23 23
25 25 24 24 24 24 24 24 25 24 23 23 24 24 24 24 24 24 24 24 24 24 24 23 23 23 23 23 23 23 23 23 22 23 23 23 24 24 24 24 24 23 24
25 25 24 23 23 24 24 24 24 24 23 23 24 24 24 24 24 25 25 25 25 25 25 24 24 23 24 24 24 24 24 24 24 23 24 24 24 25 25 25 25 25 24
26 26 25 24 24 24 24 24 24 24 24 24 24 25 25 25 25 25 25 25 25 25 25 25 25 24 25 25 25 25 25 25 25 25 25 25 25 25 25 26 26 26 25
26 25 25 25 25 26 26 26 25 25 25 25 25 25 25 25 26 26 25 25 25 25 25 25 25 25 26 26 26 26 26 27 26 26 26 26 26 26 26 26 26 26 25
26 26 26 26 26 26 26 26 25 25 26 25 25 25 25 25 25 25 26 26 26 27 27 27 26 26 26 27 26 27 27 27 27 27 27 27 27 27 27 26 26 26 25
27 27 27 27 27 27 27 26 25 26 26 26 26 26 26 26 26 26 27 27 27 27 27 27 27 27 27 27 28 28 27 27 28 28 27 27 27 27 27 26 26 26 26
27 27 27 27 27 28 28 27 27 27 26 26 27 27 27 27 27 27 28 28 28 28 28 28 27 27 27 28 28 28 28 28 28 28 28 28 27 27 27 27 26 26 26
28 28 28 27 27 28 28 27 27 27 27 27 28 28 28 28 28 28 28 29 29 29 28 28 28 28 28 28 28 27 27 27 27 27 27 27 27 27 27 27 27 27 27
29 29 28 28 28 28 28 28 28 29 29 29 29 29 28 28 28 29 29 29 29 29 29 29 29 28 28 28 28 27 27 27 27 27 27 27 26 27 26 27 27 28 28
30 29 29 29 29 29 29 29 29 29 29 29 29 29 29 29 29 29 30 30 30 30 30 30 29 29 29 28 28 28 27 27 27 27 27 27 27 27 26 26 27 28 28
30 30 30 30 31 31 30 30 30 30 30 29 29 29 30 30 30 30 29 30 30 30 31 31 31 30 30 29 28 28 28 28 28 28 27 28 28 27 27 27 27 27 28
31 31 31 32 32 32 31 30 30 30 30 30 30 29 29 30 30 30 30 31 32 32 32 32 31 31 31 30 30 30 30 29 29 29 29 29 29 29 28 28 28 28 28
31 31 31 32 32 32 32 31 31 30 30 31 31 31 31 31 32 32 32 31 32 32 33 32 32 32 31 31 31 31 31 30 30 30 30 30 30 30 30 30 30 30 29
32 32 32 32 31 31 32 32 32 31 31 31 31 31 31 31 32 32 32 33 33 33 33 33 33 32 32 32 32 32 32 32 31 31 30 31 31 31 31 31 31 31 31
33 32 32 32 31 31 32 32 32 32 31 31 31 31 31 32 32 32 33 34 33 33 34 34 34 34 33 33 33 33 32 32 32 32 32 32 31 31 31 31 31 31 31
32 32 32 32 32 32 32 32 32 31 32 32 32 32 32 33 33 33 33 34 34 33 33 34 35 34 34 34 34 33 33 33 33 33 33 33 32 31 31 30 30 31 31

GEFSGL_500_meanwind_258.txt.gz
Wind_Speed
19 19 19 19 19 19 18 19 18 18 18 18 17 16 16 15 15 15 15 16 15 15 14 14 13 13 13 13 13 13 13 13 13 13 13 13 13 13 13 14 14 14 15
20 20 20 20 20 20 20 19 20 19 19 19 18 18 17 17 17 17 17 17 17 16 16 15 14 14 14 14 14 14 14 14 13 13 14 14 14 14 15 15 15 15 15
21 21 21 21 21 21 21 21 21 21 21 20 20 20 19 19 19 19 19 19 18 18 17 17 16 16 16 15 15 15 15 15 15 14 14 15 15 16 16 16 16 16 16
22 22 22 22 22 23 22 22 22 22 21 21 21 21 20 20 20 20 20 20 19 19 18 18 17 17 17 17 17 17 17 17 16 16 16 16 16 17 17 17 18 17 17
24 23 23 23 24 23 23 23 22 22 22 21 22 21 21 21 21 21 20 20 20 19 19 19 19 19 18 18 18 18 18 18 18 18 18 18 18 19 18 18 18 17 18
24 24 24 24 24 24 24 24 23 23 23 22 22 22 22 22 21 21 21 21 20 20 20 20 20 21 20 20 20 20 19 19 19 19 19 19 19 20 19 19 19 19 19
25 25 25 26 25 25 25 24 24 24 24 23 23 23 23 23 22 22 22 22 22 22 22 22 22 22 22 22 22 21 21 21 21 21 21 20 20 21 20 20 20 20 21
26 26 26 26 26 25 25 25 24 24 24 24 24 24 23 23 23 23 24 24 24 23 23 23 23 23 24 24 22 22 22 22 23 22 22 22 22 22 21 21 21 21 21
27 27 27 27 26 25 25 25 25 25 25 24 24 24 24 24 24 24 25 25 25 25 24 24 25 25 25 25 24 23 23 23 24 24 23 23 23 22 22 22 22 22 22
27 27 27 26 26 26 26 26 26 25 25 25 25 25 25 24 24 25 26 26 26 26 25 25 26 26 26 26 26 25 24 24 25 25 24 24 24 23 23 23 23 23 23
28 28 27 26 26 26 26 26 26 26 26 25 25 25 26 25 26 26 27 27 27 26 26 26 27 27 26 26 26 25 25 25 25 26 26 25 25 24 24 24 24 24 24
28 27 27 27 26 26 26 26 26 26 26 26 26 26 26 27 27 27 27 27 27 27 27 27 27 27 26 26 26 26 26 26 26 26 26 26 25 25 25 25 25 25 25
28 28 27 27 26 26 26 26 26 26 26 26 26 26 26 26 27 27 26 26 26 27 26 26 27 27 27 27 27 27 27 27 27 27 27 26 26 26 26 27 27 27 26
29 28 27 27 26 26 26 26 26 26 26 26 26 26 26 26 26 27 26 26 26 26 26 26 26 26 27 27 27 28 28 28 28 27 27 27 27 27 27 27 27 27 27
29 28 28 28 27 26 26 26 26 27 27 27 27 26 27 26 26 27 26 26 26 26 26 26 27 28 28 28 28 28 28 28 28 28 28 28 28 28 28 28 27 27 27
30 29 29 29 28 28 27 27 27 27 27 28 28 28 28 27 27 27 26 27 27 27 27 27 28 28 28 28 28 28 28 28 28 28 28 28 28 28 28 28 27 27 26
32 31 31 30 29 29 29 28 28 28 28 28 28 28 29 28 28 27 27 27 28 28 28 28 28 28 28 28 28 29 29 28 28 28 27 28 28 28 28 28 27 26 26
33 32 31 31 31 30 30 30 29 30 29 29 29 29 29 29 28 28 28 28 28 29 29 29 29 29 29 28 28 29 29 29 29 29 28 28 27 27 27 28 28 28 27
33 32 32 31 31 31 31 30 31 31 31 30 30 30 30 30 29 29 29 29 29 30 30 30 30 30 29 29 30 30 30 30 30 30 29 28 28 28 28 28 28 29 28
33 33 33 33 32 32 31 32 31 31 31 31 31 31 31 30 30 31 31 30 30 31 31 31 31 31 31 31 31 31 31 31 31 31 30 29 29 29 29 30 30 29 29
34 33 33 34 33 33 33 33 33 33 32 32 32 32 32 32 32 32 32 32 32 32 32 32 32 32 32 32 32 31 31 31 31 31 31 30 30 30 30 31 31 31 31
34 33 32 32 33 33 33 33 33 33 33 33 33 33 32 33 33 33 32 32 32 32 33 33 33 33 33 33 32 32 32 31 31 32 31 31 31 31 31 32 32 32 32
35 34 33 32 32 32 32 32 33 34 34 34 34 34 34 34 34 33 33 33 33 34 33 33 33 34 34 33 33 33 32 32 32 32 32 32 32 32 32 32 32 32 32
34 34 34 33 33 33 32 33 33 33 34 34 34 34 34 35 34 34 34 33 33 33 33 34 34 33 33 33 34 33 33 33 33 33 32 32 33 33 33 33 33 33 32
33 33 33 33 33 34 34 34 34 34 34 34 34 34 34 35 34 33 33 33 34 34 34 34 34 34 33 33 34 33 33 34 34 33 33 33 33 33 33 33 33 33 33
33 33 33 33 33 34 35 34 33 33 33 34 35 34 34 34 34 34 34 35 35 34 34 34 34 34 34 34 34 33 33 34 34 34 34 33 32 33 33 33 33 33 33

GEFSGL_500_meanwind_264.txt.gz
Wind_Speed
18 18 18 18 18 18 18 18 18 17 17 18 17 17 17 16 16 15 15 15 16 15 15 15 15 14 14 15 15 15 14 13 13 12 12 12 12 13 12 13 13 13 13
19 19 19 19 18 18 19 19 19 19 19 19 19 18 18 18 18 17 17 18 18 18 18 18 17 16 17 16 16 15 15 15 14 14 14 14 14 13 13 14 14 14 14
20 20 20 19 19 19 20 20 20 20 20 20 20 19 19 20 20 19 19 20 19 20 20 19 19 18 18 17 17 16 16 16 16 16 16 16 15 15 15 15 15 16 16
21 21 21 21 21 21 21 21 21 21 21 21 21 21 20 21 21 21 21 21 20 21 21 20 21 20 19 18 17 17 17 17 17 17 17 17 17 17 17 17 18 18 18
22 22 22 22 22 22 22 22 22 22 22 22 22 22 21 21 21 21 21 21 21 22 21 21 21 21 20 19 19 18 18 19 19 19 19 19 19 19 19 19 19 19 19
24 24 24 24 24 23 23 24 23 23 22 22 22 22 22 22 22 22 22 22 22 22 22 22 21 21 21 21 21 20 20 20 20 21 21 20 20 20 20 20 19 20 20
25 25 25 25 25 25 25 25 24 23 22 22 22 22 22 22 22 23 23 23 23 22 22 22 22 22 22 22 22 23 23 22 22 22 22 22 21 21 21 21 21 21 21
26 26 27 27 27 26 26 25 24 24 23 23 23 23 23 23 23 23 24 24 23 23 23 23 23 23 23 23 24 25 24 24 24 24 23 23 23 22 22 22 22 22 22
27 27 28 28 28 27 26 25 25 24 24 25 25 24 24 23 24 24 25 25 25 24 24 24 24 24 24 24 25 25 25 25 26 25 25 24 24 24 23 23 23 22 22
27 28 28 28 28 27 26 26 25 25 25 26 25 25 25 24 25 25 25 25 25 25 25 25 25 25 25 25 26 26 26 26 26 26 25 26 26 26 25 25 24 24 24
28 28 28 29 28 28 27 26 26 26 26 26 25 25 25 25 25 25 26 26 25 25 25 26 26 26 26 26 26 26 26 26 26 26 26 26 26 26 26 26 26 26 25
29 29 29 29 29 28 27 26 26 25 26 26 26 26 26 25 25 25 26 26 25 25 25 26 26 27 27 27 27 27 27 27 26 26 26 27 27 27 27 27 27 27 26
30 29 29 30 29 29 28 27 27 27 26 26 26 26 26 26 26 26 26 25 26 26 26 27 28 28 28 27 27 27 27 27 27 27 27 27 27 27 27 27 27 27 27
31 30 30 30 30 29 29 28 28 27 27 27 27 26 26 26 26 26 26 26 27 27 27 27 27 27 27 28 28 28 28 28 28 28 28 27 27 27 27 27 27 28 28
32 32 32 31 30 30 29 29 28 28 28 27 27 27 27 27 27 27 27 27 27 27 28 28 28 28 28 28 28 29 29 29 28 28 28 27 27 28 28 28 28 28 29
33 33 32 32 31 30 29 29 29 29 28 28 28 28 28 27 27 27 27 28 28 28 28 29 29 28 28 29 29 29 30 30 29 29 29 28 28 28 29 29 29 29 29
34 34 33 32 31 31 31 30 30 30 29 29 28 29 29 28 28 28 28 28 28 28 28 29 29 29 29 29 30 30 30 30 31 30 30 30 30 29 29 30 30 30 30
34 34 33 32 32 32 31 31 30 30 30 30 30 30 30 30 30 30 29 29 29 29 29 29 29 29 30 30 30 30 30 30 31 31 31 30 30 30 30 30 31 31 31
34 34 34 33 32 32 32 32 32 32 32 31 32 31 31 31 31 31 31 30 30 30 29 30 30 30 30 30 30 31 31 31 31 31 31 31 31 31 31 32 31 31 31
34 34 34 33 32 32 33 33 33 33 33 32 32 32 31 32 32 32 32 31 31 30 30 30 30 30 30 31 31 31 32 32 31 31 32 32 32 32 33 33 32 32 31
33 34 34 34 33 32 32 32 32 33 33 33 32 32 32 32 32 32 32 32 31 31 31 31 31 31 31 31 31 31 32 32 32 32 32 33 33 33 33 33 33 33 32
33 33 33 32 32 32 32 32 32 33 33 33 32 32 33 33 33 32 32 33 32 32 32 32 32 32 32 32 32 32 32 32 32 32 33 33 34 34 34 34 34 34 33
33 33 33 32 32 32 32 32 32 32 33 33 33 34 34 34 33 32 33 33 34 33 33 33 33 33 33 33 33 33 33 33 33 33 33 34 34 35 35 35 35 35 35
32 32 32 32 33 32 32 32 33 33 33 33 33 33 33 33 34 33 33 34 34 34 34 34 34 34 34 34 34 34 34 34 34 34 34 34 35 35 36 36 36 36 36
32 32 33 33 33 33 33 32 33 33 33 33 33 33 33 33 34 34 34 34 34 34 35 35 34 34 34 34 34 34 35 35 35 35 36 36 35 36 36 36 36 36 36
32 33 32 32 32 32 32 32 33 33 34 33 32 33 33 34 34 34 34 34 34 34 34 34 34 34 34 35 35 35 35 36 36 36 36 36 35 35 36 36 36 36 36

GEFSGL_500_meanwind_270.txt.gz
Wind_Speed
18 18 19 19 19 19 19 19 19 19 18 18 18 17 17 17 17 17 17 17 17 17 17 17 18 18 19 18 18 18 18 18 17 17 17 17 17 16 16 17 16 16 16
19 19 19 20 20 20 20 19 20 20 20 20 19 19 19 18 18 18 18 18 18 18 18 19 19 19 20 20 19 19 19 19 18 18 18 18 18 18 18 18 18 18 18
21 21 20 21 21 21 21 21 21 21 21 21 20 20 19 19 19 19 19 20 20 20 20 20 21 21 21 21 20 20 20 20 20 20 20 20 19 19 19 19 18 18 18
22 22 22 22 23 23 22 23 23 22 22 22 21 21 21 21 21 21 21 21 21 21 22 22 22 22 22 21 21 21 21 21 21 21 21 21 21 20 19 19 19 18 18
23 24 24 24 24 24 24 24 24 24 23 23 23 22 22 22 22 22 22 22 22 22 23 24 24 23 23 22 22 22 22 22 22 22 22 22 21 21 20 20 19 19 19
25 26 26 26 25 25 24 25 25 25 25 24 24 24 24 24 23 23 23 23 23 23 24 25 25 25 24 23 23 23 23 23 23 22 22 22 22 21 21 20 20 20 20
26 26 26 26 26 25 25 26 26 26 26 26 25 25 25 25 25 24 24 24 24 25 25 25 26 25 24 24 24 23 24 24 23 23 23 23 23 22 22 22 22 22 21
27 27 27 27 27 27 27 27 27 27 26 26 26 26 26 26 26 26 26 26 26 26 25 25 25 26 26 26 25 24 24 24 24 24 24 23 23 23 23 23 23 23 23
28 28 29 28 28 28 28 29 28 28 27 27 27 27 27 28 27 27 27 26 26 26 26 26 26 26 26 26 26 25 25 25 25 25 24 24 24 24 24 24 24 24 24
29 29 29 30 29 29 29 29 28 28 28 27 27 27 27 27 27 27 26 26 26 26 26 26 26 26 26 26 26 26 26 26 26 26 26 25 26 26 26 26 26 26 26
30 30 30 30 29 29 29 29 28 28 28 29 28 27 27 27 27 27 27 27 26 26 27 27 26 26 27 27 27 27 27 27 27 28 27 27 27 27 27 28 28 28 27
30 30 30 30 30 30 29 29 29 28 28 28 28 28 27 27 27 27 27 27 27 27 27 27 27 27 27 27 27 28 28 28 28 28 28 28 28 29 29 29 29 29 29
31 31 31 31 30 30 30 30 30 29 29 28 28 28 28 28 28 28 28 29 28 28 28 28 28 28 28 28 28 29 29 29 29 29 29 29 29 29 30 30 30 29 29
32 32 32 32 32 32 31 31 31 31 30 30 30 30 29 29 29 29 29 29 29 28 28 29 29 29 29 28 29 29 29 29 29 29 29 29 29 30 30 29 29 30 29
33 33 33 32 32 33 32 32 32 31 31 30 30 30 30 29 29 30 30 30 30 30 30 29 29 29 29 29 29 29 29 29 29 29 29 29 29 30 30 30 30 30 30
33 34 34 33 33 33 33 32 32 32 31 32 31 31 31 30 29 29 30 30 30 30 30 30 29 29 29 29 29 29 29 29 30 30 30 30 30 30 31 31 31 31 31
34 34 33 33 33 33 33 32 31 31 32 32 32 32 32 31 31 31 31 31 31 30 30 30 29 28 29 29 29 29 29 30 30 30 31 31 31 31 31 31 31 31 31
35 35 34 34 33 33 32 32 31 31 32 32 32 32 32 32 32 32 31 31 31 30 30 29 28 29 29 30 30 30 30 30 31 31 31 31 31 32 32 32 32 32 32
36 36 36 35 34 33 32 32 31 31 32 31 31 32 32 32 32 32 32 31 31 31 31 30 30 30 30 30 30 31 31 31 32 32 32 32 32 32 32 32 31 31 32
36 36 36 35 34 33 33 32 31 31 31 31 31 32 32 32 32 32 32 32 32 32 32 32 31 32 31 31 31 31 32 32 32 33 33 32 32 32 32 31 31 31 31
36 36 35 35 34 33 33 32 32 32 31 31 31 32 32 32 33 33 33 33 32 32 32 33 33 33 33 32 32 32 33 33 33 33 33 33 32 32 32 32 32 32 32
36 35 35 34 34 33 33 33 33 33 32 31 31 31 32 32 32 32 32 32 33 33 32 32 33 33 33 34 34 33 33 33 34 34 33 33 33 32 33 33 33 33 33
35 35 35 35 34 33 33 34 33 34 34 34 32 31 31 31 31 31 32 32 33 35 35 34 35 35 35 35 35 35 34 34 34 34 34 33 33 33 34 34 34 35 34
35 35 35 35 34 34 33 33 33 34 34 34 33 32 32 32 32 32 32 33 33 34 35 35 36 36 37 37 37 36 36 35 35 34 34 34 34 34 35 35 34 34 34
34 34 34 34 33 33 33 33 33 33 33 33 33 32 32 32 33 33 33 33 34 35 35 36 36 36 37 37 37 37 36 36 35 35 35 35 36 36 36 36 36 35 35
34 34 33 33 33 33 32 32 33 33 33 32 33 33 33 33 34 34 34 34 34 35 36 36 36 36 36 36 37 37 37 37 37 37 38 37 37 37 37 38 38 37 37